TimeEST,TemperatureF,Dew PointF,Humidity,Sea Level PressureIn,VisibilityMPH,Wind Direction,Wind SpeedMPH,Gust SpeedMPH,PrecipitationIn,Events,Conditions,WindDirDegrees,DateUTC
12:15 AM,46.4,42.8,87,29.99,10.0,South,11.5,18.4,N/A,,Overcast,170,2013-02-11 05:15:00
12:35 AM,46.4,42.8,87,29.99,10.0,SSE,11.5,-,N/A,,Overcast,150,2013-02-11 05:35:00
12:55 AM,46.4,42.8,87,29.99,10.0,SSE,8.1,-,N/A,,Overcast,150,2013-02-11 05:55:00
1:15 AM,48.2,42.8,82,29.98,10.0,SSE,10.4,17.3,N/A,,Overcast,150,2013-02-11 06:15:00
1:35 AM,50.0,44.6,82,29.98,10.0,South,12.7,20.7,N/A,,Overcast,170,2013-02-11 06:35:00
1:55 AM,51.8,44.6,76,29.98,10.0,South,15.0,25.3,N/A,,Overcast,170,2013-02-11 06:55:00
2:15 AM,50.0,44.6,82,29.97,10.0,South,12.7,17.3,N/A,,Overcast,170,2013-02-11 07:15:00
2:35 AM,50.0,46.4,87,30.00,5.0,SSW,9.2,-,N/A,Rain,Rain,210,2013-02-11 07:35:00
2:55 AM,50.0,46.4,87,29.98,10.0,SSW,8.1,-,0.02,Rain,Light Rain,200,2013-02-11 07:55:00
3:15 AM,48.2,46.4,93,29.96,10.0,South,8.1,-,N/A,,Overcast,190,2013-02-11 08:15:00
3:35 AM,48.2,46.4,93,29.95,10.0,South,9.2,18.4,N/A,,Overcast,190,2013-02-11 08:35:00
3:55 AM,50.0,46.4,87,29.95,10.0,SSW,11.5,-,N/A,,Overcast,210,2013-02-11 08:55:00
4:15 AM,50.0,46.4,87,29.95,10.0,SSW,17.3,24.2,N/A,,Overcast,210,2013-02-11 09:15:00
4:35 AM,51.8,46.4,82,29.96,10.0,SSW,18.4,23.0,N/A,,Overcast,210,2013-02-11 09:35:00
4:55 AM,51.8,48.2,88,29.96,10.0,South,18.4,24.2,N/A,,Overcast,190,2013-02-11 09:55:00
5:15 AM,50.0,50.0,100,29.97,10.0,SSW,13.8,-,N/A,,Overcast,200,2013-02-11 10:15:00
5:35 AM,50.0,50.0,100,29.98,10.0,SSW,9.2,-,N/A,Rain,Light Rain,210,2013-02-11 10:35:00
5:55 AM,50.0,50.0,100,29.97,7.0,SSW,11.5,16.1,N/A,Rain,Light Rain,210,2013-02-11 10:55:00
6:15 AM,50.0,50.0,100,29.97,10.0,SW,9.2,-,N/A,,Overcast,230,2013-02-11 11:15:00
6:35 AM,48.2,48.2,100,29.97,10.0,SSW,10.4,-,N/A,,Overcast,210,2013-02-11 11:35:00
6:55 AM,48.2,48.2,100,29.98,7.0,SW,6.9,-,0.01,Rain,Light Rain,220,2013-02-11 11:55:00
7:15 AM,48.2,48.2,100,29.98,4.0,SW,12.7,-,N/A,Rain,Light Rain,220,2013-02-11 12:15:00
7:35 AM,48.2,48.2,100,29.99,4.0,SW,16.1,-,0.01,Rain,Light Rain,230,2013-02-11 12:35:00
7:55 AM,48.2,48.2,100,29.99,4.0,WSW,12.7,-,0.01,Rain,Light Rain,240,2013-02-11 12:55:00
8:15 AM,50.0,50.0,100,30.00,10.0,SW,18.4,23.0,N/A,,Overcast,230,2013-02-11 13:15:00
8:35 AM,50.0,50.0,100,30.00,1.5,SW,16.1,26.5,N/A,,Overcast,230,2013-02-11 13:35:00
8:55 AM,50.0,50.0,100,30.00,1.2,SW,17.3,-,N/A,,Overcast,230,2013-02-11 13:55:00
9:15 AM,50.0,50.0,100,30.00,7.0,SW,20.7,26.5,N/A,,Overcast,230,2013-02-11 14:15:00
9:35 AM,50.0,50.0,100,30.00,0.2,WSW,19.6,29.9,N/A,Fog,Fog,240,2013-02-11 14:35:00
9:55 AM,50.0,50.0,100,30.00,0.2,WSW,17.3,24.2,N/A,Fog,Fog,240,2013-02-11 14:55:00
10:15 AM,50.0,50.0,100,29.99,10.0,SW,20.7,32.2,N/A,,Overcast,230,2013-02-11 15:15:00
10:35 AM,50.0,50.0,100,29.99,10.0,SW,18.4,23.0,N/A,,Overcast,230,2013-02-11 15:35:00
10:55 AM,50.0,50.0,100,29.98,10.0,SW,15.0,23.0,N/A,,Overcast,230,2013-02-11 15:55:00
11:15 AM,51.8,51.8,100,30.00,10.0,SW,17.3,21.9,N/A,,Overcast,230,2013-02-11 16:15:00
11:35 AM,51.8,51.8,100,30.00,10.0,SW,17.3,24.2,N/A,,Mostly Cloudy,230,2013-02-11 16:35:00
11:55 AM,51.8,51.8,100,30.00,10.0,SW,20.7,27.6,0.01,,Scattered Clouds,230,2013-02-11 16:55:00
12:15 PM,51.8,50.0,94,29.98,10.0,SW,20.7,26.5,N/A,,Scattered Clouds,230,2013-02-11 17:15:00
12:35 PM,51.8,50.0,94,29.97,10.0,SW,18.4,23.0,N/A,,Scattered Clouds,220,2013-02-11 17:35:00
12:55 PM,51.8,50.0,94,29.96,10.0,SW,17.3,25.3,N/A,,Clear,220,2013-02-11 17:55:00
1:15 PM,53.6,48.2,82,29.97,10.0,SW,18.4,24.2,N/A,,Clear,220,2013-02-11 18:15:00
1:35 PM,51.8,46.4,82,29.98,10.0,SW,17.3,25.3,N/A,,Clear,230,2013-02-11 18:35:00
1:55 PM,51.8,44.6,76,29.98,10.0,SW,17.3,26.5,N/A,,Clear,220,2013-02-11 18:55:00
2:15 PM,51.8,42.8,71,29.98,10.0,SW,16.1,26.5,N/A,,Clear,220,2013-02-11 19:15:00
2:35 PM,51.8,42.8,71,29.98,10.0,SW,19.6,-,N/A,,Clear,230,2013-02-11 19:35:00
2:55 PM,51.8,42.8,71,29.97,10.0,SW,15.0,25.3,N/A,,Clear,230,2013-02-11 19:55:00
3:15 PM,51.8,41.0,67,29.98,10.0,SW,17.3,23.0,N/A,,Clear,230,2013-02-11 20:15:00
3:35 PM,51.8,39.2,62,29.98,10.0,SW,16.1,23.0,N/A,,Clear,230,2013-02-11 20:35:00
3:55 PM,50.0,37.4,62,29.98,10.0,SW,17.3,24.2,N/A,,Clear,230,2013-02-11 20:55:00
4:15 PM,50.0,37.4,62,29.98,10.0,SW,16.1,20.7,N/A,,Clear,230,2013-02-11 21:15:00
4:35 PM,50.0,37.4,62,29.98,10.0,SW,12.7,-,N/A,,Clear,220,2013-02-11 21:35:00
4:55 PM,50.0,37.4,62,29.99,10.0,SW,9.2,-,N/A,,Clear,230,2013-02-11 21:55:00
5:55 PM,46.4,33.8,62,30.00,10.0,SW,10.4,-,N/A,,Clear,220,2013-02-11 22:55:00
6:15 PM,46.4,33.8,62,29.99,10.0,SW,11.5,-,N/A,,Clear,220,2013-02-11 23:15:00
6:35 PM,46.4,33.8,62,30.00,10.0,SW,9.2,-,N/A,,Clear,220,2013-02-11 23:35:00
6:55 PM,44.6,32.0,61,30.01,10.0,SW,9.2,-,N/A,,Clear,220,2013-02-11 23:55:00
7:15 PM,44.6,32.0,61,30.00,10.0,SW,9.2,-,N/A,,Clear,220,2013-02-12 00:15:00
7:35 PM,44.6,30.2,57,30.01,10.0,SW,10.4,-,N/A,,Clear,220,2013-02-12 00:35:00
7:55 PM,44.6,30.2,57,30.01,10.0,SW,10.4,-,N/A,,Clear,220,2013-02-12 00:55:00
8:15 PM,44.6,30.2,57,30.02,10.0,SW,10.4,-,N/A,,Clear,220,2013-02-12 01:15:00
8:35 PM,44.6,30.2,57,30.02,10.0,SW,11.5,19.6,N/A,,Clear,220,2013-02-12 01:35:00
8:55 PM,42.8,28.4,57,30.02,10.0,SW,10.4,-,N/A,,Clear,230,2013-02-12 01:55:00
9:15 PM,42.8,26.6,53,30.02,10.0,WSW,6.9,-,N/A,,Clear,250,2013-02-12 02:15:00
9:35 PM,41.0,24.8,53,30.03,10.0,West,4.6,-,N/A,,Clear,270,2013-02-12 02:35:00
9:55 PM,42.8,23.0,46,30.04,10.0,West,9.2,-,N/A,,Clear,280,2013-02-12 02:55:00
10:15 PM,42.8,23.0,46,30.05,10.0,West,12.7,18.4,N/A,,Clear,270,2013-02-12 03:15:00
10:35 PM,42.8,23.0,46,30.06,10.0,West,12.7,-,N/A,,Clear,280,2013-02-12 03:35:00
10:55 PM,41.0,23.0,49,30.07,10.0,West,5.8,-,N/A,,Clear,270,2013-02-12 03:55:00
11:15 PM,41.0,23.0,49,30.07,10.0,WNW,4.6,-,N/A,,Clear,290,2013-02-12 04:15:00
11:35 PM,41.0,23.0,49,30.08,10.0,West,6.9,-,N/A,,Clear,280,2013-02-12 04:35:00
11:55 PM,39.2,24.8,56,30.09,10.0,WNW,8.1,-,N/A,,Clear,290,2013-02-12 04:55:00